Regional Weather Roundup
Issued by NWS Northern Indiana

Home | Current Version | Previous Version | Graphics & Text | Print | Product List | Glossary On
Versions: 1 2 3 4 5 6 7 8 9 10 11 12 13 14 15 16 17 18 19 20 21 22 23 24 25 26 27 28 29 30 31 32 33 34 35 36 37 38 39 40 41 42 43 44 45 46 47 48 49 50
000
ASUS43 KIWX 260410
RWRIWX

KIWX WEATHER ROUNDUP
NATIONAL WEATHER SERVICE NORTHERN INDIANA
1200 AM EDT FRI MAY 26 2017

NOTE: "FAIR" INDICATES FEW OR NO CLOUDS BELOW 12,000 FEET WITH NO
SIGNIFICANT WEATHER AND/OR OBSTRUCTIONS TO VISIBILITY.

* THESE STATIONS ARE NOT UNDER NWS QUALITY CONTROL. THEY ALSO MAY NOT
  REPORT WEATHER SUCH AS PRECIPITATION OR FOG.

INZ001>027-260500-
NORTHERN INDIANA

CITY           SKY/WX    TMP DP  RH WIND       PRES   REMARKS
GARY*          CLEAR     52  50  93 CALM      29.78S
VALPARAISO     CLEAR     52  50  93 W7        29.78R
MICHIGAN CITY* PTCLDY    46  46 100 SW5       29.78R
LAPORTE*       CLEAR     50  49  95 NW3       29.77R
KNOX*          CLEAR     52  45  76 W7        29.76S
SOUTH BEND     CLOUDY    48  48 100 W6        29.76R
GOSHEN         CLEAR     53  49  86 W9        29.73R
MONTICELLO*    PTCLDY    55  53  92 W5        29.77S
LOGANSPORT*    CLEAR     55  52  88 W6        29.78R
ROCHESTER*     CLEAR     55  54  94 W7        29.76R
WARSAW*        CLEAR     54  52  94 W9        29.74R
ANGOLA*        MOCLDY    55  46  71 W7        29.70R
FORT WAYNE     PTCLDY    57  53  86 W12       29.73R
HUNTINGTON*    CLEAR     55  54  95 W7        29.74R
PERU/GRISSOM   CLEAR     56  56 100 W7        29.76R

$$
INZ028>050-260500-
CENTRAL INDIANA

CITY           SKY/WX    TMP DP  RH WIND       PRES   REMARKS
LAFAYETTE      CLEAR     56  54  93 W6        29.78R
KOKOMO*        CLEAR     56  53  90 W7        29.78R
MUNCIE*        CLEAR     58  54  86 W8        29.76R
INDIANAPOLIS   CLEAR     56  52  86 W6        29.80R

$$
MIZ043>046-050>051-056>058-064>065-071>073-077>080-260500-
SOUTHWEST LOWER MICHIGAN

CITY           SKY/WX    TMP DP  RH WIND       PRES   REMARKS
BATTLE CREEK   CLOUDY    58  55  90 NW7       29.70R
BENTON HARBOR  CLOUDY    51  48  89 NW3       29.74R
COLDWATER*     CLOUDY    57  55  91 W7        29.69R
HILLSDALE*     CLOUDY    57  54  88 W8        29.68R
HOLLAND        CLEAR     52  50  93 NW3       29.72R
GRAND RAPIDS   CLOUDY    62  54  74 NW7       29.69R
KALAMAZOO      MOCLDY    56  50  80 NW7       29.70R
STURGIS*       PTCLDY    53  52  94 W7        29.70R
THREE RIVERS*  FAIR      54  51  89 W6        29.72R

$$
OHZ001>008-015>018-024>025-260500-
NORTHWEST OHIO

CITY           SKY/WX    TMP DP  RH WIND       PRES   REMARKS
WAUSEON*       CLOUDY    61  59  94 W10       29.67R
DEFIANCE       CLOUDY    58  54  86 W5        29.69R
FINDLAY        CLOUDY    61  56  83 W14       29.67R
TOLEDO EXPRESS CLOUDY    60  57  89 W8        29.66R
TOLEDO METCALF CLOUDY    62  57  83 W12       29.66R
LIMA           MOCLDY    59  56  89 W14       29.70R

$$
AND FOR LAKE MICHIGAN COASTAL AND OPEN LAKE BUOY OBSERVATIONS

STATION/POSITION TEMP    WIND        PRES    VSBY  WAVE
                 AIR SEA DIR/SP/G                  HT/PER
                 (F)     (DEG/KT/KT) (MB)    (MI)  (FT/S)
CALUMET HARBOR    56     320/  4/  6 1007.8R
MICHIGAN CITY     51     240/ 12/ 13   N/A
BURNS HARBOR      54     270/  8/  9 1008.8R
SOUTH LAKE BUOY   47 45  330/ 10/ 12 1006.7          2/ 5
4 MI NW BRIDGMAN  52 55  280/  8/ 10 1007.9          3/ 5
MICHIGAN CITY     51 51  270/  8/ 10   N/A           2/ 5

$$
&&




USA.gov is the U.S. government's official web portal to all federal, state and local government web resources and services.